Track AEROCUBE 7 now! 10-day predictions AEROCUBE 7 is classified as:
1 40966U 15058C 25186.54924478 .00003727 00000-0 30670-3 0 9997 2 40966 64.7635 247.6163 0152639 192.1340 167.6082 14.92037960314192